Location: Newark
(44.3248°N, 23.7839°E)
Time: 04:52:19
(UTC+00:00)

CAS-6 - Pass Details

Date: 29 April 2024
Orbit: 607 x 628 km, 97.8° (Epoch: 24 May)

Event Time Altitude Azimuth Distance (km) Brightness Sun altitude
Exits shadow 19:53:48 33° 69° (ENE) 1,045 ? -21.9°
Maximum altitude 19:53:48 33° 69° (ENE) 1,045 ? -21.9°
Drops below altitude 10° 19:57:40 10° 6° (N) 1,982 ? -22.3°
Sets 20:00:00 0° 357° (N) 2,888 ? -22.6°
